THORAD AGENA D DEB, 4935

Orbit data source: Space-Track

THORAD AGENA D DEB, 4935 is space debris in SSO originally from a launch on Wed, 08 Apr 1970 UTC launched from the Air Force Western Test Range (AFWTR). Debris objects in space refer to the collection of defunct objects orbiting the Earth. Examples of debris include non-operational satellites, rocket bodies, and fragments generated from explosions, collisions, or faulty payload assembly.

Loading next visibility...
Identifier
4935, 1970-025GB
Orbit
SSO
Country
Flag of USUS
Related business
Manufacturer
Unknown
Mission
Spacecraft
Bus & Motor
Unknown
Mass
Unknown
Launch date (UTC)
1970-04-08 (56 years ago)
Launch vehicle
Unknown
Launch site
Air Force Western Test Range (AFWTR)
Object type
Payload
Rocket body
Debris
Shape & HBR
Unknown shape, 0.1 m
Radar Cross Section
Medium (>0.1 m² and <1 m²)

Expand to show TLE details & history
Last TLE update: 8 hours ago

TLE from 8 hours ago
0 THORAD AGENA D DEB
1 04935U 70025GB  26256.13813174  .00000478  00000-0  43935-3 0  9990
2 04935  99.8656  28.8211 0064297 137.8583  34.7644 13.87402235829238
Epoch: 2026-09-13T03:18Z
TLE epoch observation values (Epoch: 2026-09-13T03:18:54.582Z)
Latitude
6.77842°
Longitude
168.13481°
Altitude
901.405 km
Speed
7.421 km/s
True Right ascension
13h 59m 59s
True Declination
6° 44' 20"
Sunlit
Object was in daylight at epoch
Visualization orbit readout
Latitude
Unknown
Longitude
Unknown
Altitude
Unknown
Speed
Unknown
Apparent Right ascension
Unknown
Apparent Declination
Unknown
Sunlit
N/A
Visualization observer readout
Local Sidereal Time
03:31:43
Azimuth
Unknown
Elevation
Unknown
Doppler factor
Unknown
Orbital elements
Apogee altitude
982.03 km
Perigee altitude
887.988 km
Semi-major axis
7,313.146 km
Eccentricity
0.00643
Inclination
99.8656°
RAAN
28.8211°
Arg. of periapsis
137.8583°
True anomaly
35.18731°
Mean anomaly
34.7644°
Eccentric anomaly
34.97557°
Mean motion
3.47046 °/min
Orbital period
103.73 mins
BSTAR
0.00043935
Loading maneuver chart data...
Computing Atmospheric mass density...

Documentation

Showing up to 5 results
|